,,Stat6,,Stat2,,Stat8,,Stat9,,Stat10,,Wind1,,Wind1,
time,status,PA1M_AVG,status,PR1M_SUM,status,RH1M_AVG,status,SR1M_AVG,status,TA1M_AVG,status,W1dAve1m,status,W1sAve1m,
2009-03-25, 00:00:00,VALID,919.371,VALID,0,VALID,100,VALID,-0.101885,VALID,20.5218,VALID,360,VALID,0,
2009-03-25, 00:01:00,VALID,919.367,VALID,0,VALID,100,VALID,-0.0679233,VALID,20.5056,VALID,4,VALID,0,
2009-03-25, 00:02:00,VALID,919.364,VALID,0,VALID,100,VALID,-0.118866,VALID,20.4861,VALID,10,VALID,0.071875,
2009-03-25, 00:03:00,VALID,919.343,VALID,0,VALID,100,VALID,-0.0509425,VALID,20.4634,VALID,9,VALID,0.416797,
2009-03-25, 00:04:00,VALID,919.334,VALID,0,VALID,100,VALID,-0.0339617,VALID,20.4539,VALID,10,VALID,0.166788,
2009-03-25, 00:05:00,VALID,919.319,VALID,0,VALID,100,VALID,-0.0169808,VALID,20.4372,VALID,17,VALID,0.0728561,
2009-03-25, 00:06:00,VALID,919.313,VALID,0,VALID,100,VALID,-0.0339617,VALID,20.431,VALID,8,VALID,0,
2009-03-25, 00:07:00,VALID,919.297,VALID,0,VALID,100,VALID,-0.0339617,VALID,20.4177,VALID,6,VALID,0.0314317,
2009-03-25, 00:08:00,VALID,919.29,VALID,0,VALID,100,VALID,-0.0849042,VALID,20.4177,VALID,16,VALID,0,
2009-03-25, 00:09:00,VALID,919.271,VALID,0,VALID,100,VALID,0,VALID,20.4242,VALID,7,VALID,0,
2009-03-25, 00:10:00,VALID,919.258,VALID,0,VALID,100,VALID,0,VALID,20.4037,VALID,5,VALID,0,
2009-03-25, 00:11:00,VALID,919.246,VALID,0,VALID,100,VALID,-0.0169808,VALID,20.4175,VALID,3,VALID,0.0262277,
2009-03-25, 00:12:00,VALID,919.238,VALID,0,VALID,100,VALID,-0.0339617,VALID,20.4212,VALID,16,VALID,0,
2009-03-25, 00:13:00,VALID,919.227,VALID,0,VALID,100,VALID,-0.0339617,VALID,20.4177,VALID,17,VALID,0.299543,
2009-03-25, 00:14:00,VALID,919.235,VALID,0,VALID,100,VALID,-0.0509425,VALID,20.4275,VALID,15,VALID,0.0996943,
2009-03-25, 00:15:00,VALID,919.21,VALID,0,VALID,100,VALID,0,VALID,20.4534,VALID,5,VALID,0,
2009-03-25, 00:16:00,VALID,919.177,VALID,0,VALID,100,VALID,0,VALID,20.4634,VALID,23,VALID,0.273438,
2009-03-25, 00:17:00,VALID,919.171,VALID,0,VALID,100,VALID,0.0169808,VALID,20.4726,VALID,15,VALID,0.00571646,
2009-03-25, 00:18:00,VALID,919.172,VALID,0,VALID,100,VALID,-0.0339617,VALID,20.4726,VALID,6,VALID,0.0139898,
2009-03-25, 00:19:00,VALID,919.145,VALID,0,VALID,100,VALID,0,VALID,20.4856,VALID,20,VALID,0.100818,
2009-03-25, 00:20:00,VALID,919.135,VALID,0,VALID,100,VALID,-0.0339617,VALID,20.4821,VALID,14,VALID,0.247332,
2009-03-25, 00:21:00,VALID,919.105,VALID,0,VALID,100,VALID,-0.0339617,VALID,20.4926,VALID,5,VALID,0.195486,
2009-03-25, 00:22:00,VALID,919.101,VALID,0,VALID,100,VALID,-0.0169808,VALID,20.5054,VALID,12,VALID,0.0592296,
2009-03-25, 00:23:00,VALID,919.07,VALID,0,VALID,100,VALID,0,VALID,20.5016,VALID,359,VALID,0.282522,
2009-03-25, 00:24:00,VALID,919.05,VALID,0,VALID,100,VALID,0,VALID,20.5243,VALID,20,VALID,0.0878906,
2009-03-25, 00:25:00,VALID,919.039,VALID,0,VALID,100,VALID,-0.0339617,VALID,20.5178,VALID,345,VALID,0,
2009-03-25, 00:26:00,VALID,919.019,VALID,0,VALID,100,VALID,-0.0169808,VALID,20.5111,VALID,360,VALID,0,
2009-03-25, 00:27:00,VALID,919.012,VALID,0,VALID,100,VALID,-0.0169808,VALID,20.4916,VALID,24,VALID,0,
2009-03-25, 00:28:00,VALID,919.003,VALID,0,VALID,100,VALID,-0.0169808,VALID,20.4891,VALID,23,VALID,0,
2009-03-25, 00:29:00,VALID,918.996,VALID,0,VALID,100,VALID,-0.0169808,VALID,20.4824,VALID,23,VALID,0,
2009-03-25, 00:30:00,VALID,918.988,VALID,0,VALID,100,VALID,-0.0169808,VALID,20.4756,VALID,23,VALID,0,
2009-03-25, 00:31:00,VALID,918.978,VALID,0,VALID,100,VALID,-0.0339617,VALID,20.4794,VALID,23,VALID,0,
2009-03-25, 00:32:00,VALID,918.979,VALID,0,VALID,100,VALID,-0.0679233,VALID,20.4697,VALID,12,VALID,0,
2009-03-25, 00:33:00,VALID,918.976,VALID,0,VALID,100,VALID,0,VALID,20.4724,VALID,352,VALID,0.00260417,
2009-03-25, 00:34:00,VALID,918.973,VALID,0,VALID,100,VALID,0,VALID,20.4886,VALID,9,VALID,0,
2009-03-25, 00:35:00,VALID,918.974,VALID,0,VALID,100,VALID,-0.0169808,VALID,20.4694,VALID,8,VALID,0,
2009-03-25, 00:36:00,VALID,918.966,VALID,0,VALID,100,VALID,0.0169808,VALID,20.4562,VALID,11,VALID,0,
2009-03-25, 00:37:00,VALID,918.963,VALID,0,VALID,100,VALID,-0.0509425,VALID,20.4464,VALID,26,VALID,0,
2009-03-25, 00:38:00,VALID,918.937,VALID,0,VALID,100,VALID,0.0339617,VALID,20.4197,VALID,20,VALID,0,
2009-03-25, 00:39:00,VALID,918.925,VALID,0,VALID,100,VALID,0.0849042,VALID,20.3957,VALID,9,VALID,0,
2009-03-25, 00:40:00,VALID,918.908,VALID,0,VALID,100,VALID,0.0849042,VALID,20.39,VALID,16,VALID,0,
2009-03-25, 00:41:00,VALID,918.89,VALID,0,VALID,100,VALID,0.0849042,VALID,20.3997,VALID,21,VALID,0,
2009-03-25, 00:42:00,VALID,918.87,VALID,0,VALID,100,VALID,0.0679233,VALID,20.3927,VALID,31,VALID,0,
2009-03-25, 00:43:00,VALID,918.855,VALID,0,VALID,100,VALID,0.101885,VALID,20.4064,VALID,21,VALID,0,
2009-03-25, 00:44:00,VALID,918.848,VALID,0,VALID,100,VALID,0.101885,VALID,20.3859,VALID,21,VALID,0,
2009-03-25, 00:45:00,VALID,918.846,VALID,0,VALID,100,VALID,0.0849042,VALID,20.3702,VALID,21,VALID,0,
2009-03-25, 00:46:00,VALID,918.842,VALID,0,VALID,100,VALID,0.118866,VALID,20.357,VALID,21,VALID,0,
2009-03-25, 00:47:00,VALID,918.819,VALID,0,VALID,100,VALID,0.0849042,VALID,20.3508,VALID,21,VALID,0,
2009-03-25, 00:48:00,VALID,918.803,VALID,0,VALID,100,VALID,0.118866,VALID,20.3113,VALID,21,VALID,0,
2009-03-25, 00:49:00,VALID,918.789,VALID,0,VALID,100,VALID,0.101885,VALID,20.3113,VALID,21,VALID,0,
2009-03-25, 00:50:00,VALID,918.753,VALID,0,VALID,100,VALID,0.0679233,VALID,20.3448,VALID,21,VALID,0,
2009-03-25, 00:51:00,VALID,918.732,VALID,0,VALID,100,VALID,0.118866,VALID,20.3405,VALID,21,VALID,0,
2009-03-25, 00:52:00,VALID,918.698,VALID,0,VALID,100,VALID,0.0849042,VALID,20.341,VALID,21,VALID,0,
2009-03-25, 00:53:00,VALID,918.679,VALID,0,VALID,100,VALID,0.0169808,VALID,20.3256,VALID,21,VALID,0,
2009-03-25, 00:54:00,VALID,918.658,VALID,0,VALID,100,VALID,-0.118866,VALID,20.3204,VALID,25,VALID,0,
2009-03-25, 00:55:00,VALID,918.644,VALID,0,VALID,100,VALID,-0.0339617,VALID,20.3363,VALID,26,VALID,0,
2009-03-25, 00:56:00,VALID,918.631,VALID,0,VALID,100,VALID,-0.0679233,VALID,20.3466,VALID,26,VALID,0,
2009-03-25, 00:57:00,VALID,918.611,VALID,0,VALID,100,VALID,-0.0679233,VALID,20.3523,VALID,26,VALID,0,
2009-03-25, 00:58:00,VALID,918.597,VALID,0,VALID,100,VALID,-0.0679233,VALID,20.3758,VALID,26,VALID,0,
2009-03-25, 00:59:00,VALID,918.573,VALID,0,VALID,100,VALID,-0.0849042,VALID,20.3723,VALID,26,VALID,0,
2009-03-25, 01:00:00,VALID,918.539,VALID,0,VALID,100,VALID,-0.0849042,VALID,20.3498,VALID,26,VALID,0,
2009-03-25, 01:01:00,VALID,918.511,VALID,0,VALID,100,VALID,-0.0509425,VALID,20.3271,VALID,25,VALID,0,
2009-03-25, 01:02:00,VALID,918.479,VALID,0,VALID,100,VALID,-0.0509425,VALID,20.3171,VALID,22,VALID,0,
2009-03-25, 01:03:00,VALID,918.459,VALID,0,VALID,100,VALID,-0.0509425,VALID,20.3526,VALID,22,VALID,0,
2009-03-25, 01:04:00,VALID,918.414,VALID,0,VALID,100,VALID,-0.0679233,VALID,20.3466,VALID,34,VALID,0,
2009-03-25, 01:05:00,VALID,918.42,VALID,0,VALID,100,VALID,-0.0509425,VALID,20.3496,VALID,39,VALID,0,
2009-03-25, 01:06:00,VALID,918.393,VALID,0,VALID,100,VALID,-0.0849042,VALID,20.3466,VALID,39,VALID,0.0402644,
2009-03-25, 01:07:00,VALID,918.396,VALID,0,VALID,100,VALID,-0.0679233,VALID,20.3628,VALID,29,VALID,0,
2009-03-25, 01:08:00,VALID,918.394,VALID,0,VALID,100,VALID,-0.0169808,VALID,20.3426,VALID,23,VALID,0,
2009-03-25, 01:09:00,VALID,918.397,VALID,0,VALID,100,VALID,0.0169808,VALID,20.3353,VALID,23,VALID,0,
2009-03-25, 01:10:00,VALID,918.401,VALID,0,VALID,100,VALID,0.0169808,VALID,20.342,VALID,23,VALID,0,
2009-03-25, 01:11:00,VALID,918.398,VALID,0,VALID,100,VALID,0.0509425,VALID,20.3375,VALID,23,VALID,0,
2009-03-25, 01:12:00,VALID,918.366,VALID,0,VALID,100,VALID,0.0509425,VALID,20.3675,VALID,23,VALID,0,
2009-03-25, 01:13:00,VALID,918.346,VALID,0,VALID,100,VALID,0,VALID,20.3672,VALID,23,VALID,0,
2009-03-25, 01:14:00,VALID,918.315,VALID,0,VALID,100,VALID,0.0339617,VALID,20.3545,VALID,23,VALID,0,
2009-03-25, 01:15:00,VALID,918.289,VALID,0,VALID,100,VALID,0.0339617,VALID,20.361,VALID,23,VALID,0,
2009-03-25, 01:16:00,VALID,918.26,VALID,0,VALID,100,VALID,0,VALID,20.3742,VALID,23,VALID,0,
2009-03-25, 01:17:00,VALID,918.224,VALID,0,VALID,100,VALID,0,VALID,20.3905,VALID,23,VALID,0,
2009-03-25, 01:18:00,VALID,918.213,VALID,0,VALID,100,VALID,0,VALID,20.4005,VALID,23,VALID,0,
2009-03-25, 01:19:00,VALID,918.195,VALID,0,VALID,100,VALID,0.0169808,VALID,20.4002,VALID,27,VALID,0,
2009-03-25, 01:20:00,VALID,918.179,VALID,0,VALID,100,VALID,0.0509425,VALID,20.3802,VALID,28,VALID,0,
2009-03-25, 01:21:00,VALID,918.157,VALID,0,VALID,100,VALID,0,VALID,20.3288,VALID,28,VALID,0,
2009-03-25, 01:22:00,VALID,918.128,VALID,0,VALID,100,VALID,0.0169808,VALID,20.2996,VALID,28,VALID,0,
2009-03-25, 01:23:00,VALID,918.126,VALID,0,VALID,100,VALID,-0.0339617,VALID,20.2672,VALID,34,VALID,0,
2009-03-25, 01:24:00,VALID,918.104,VALID,0,VALID,100,VALID,0,VALID,20.225,VALID,44,VALID,0,
2009-03-25, 01:25:00,VALID,918.089,VALID,0,VALID,100,VALID,0,VALID,20.215,VALID,44,VALID,0,
2009-03-25, 01:26:00,VALID,918.081,VALID,0,VALID,100,VALID,0,VALID,20.2182,VALID,44,VALID,0,
2009-03-25, 01:27:00,VALID,918.09,VALID,0,VALID,100,VALID,0.0169808,VALID,20.225,VALID,44,VALID,0,
2009-03-25, 01:28:00,VALID,918.112,VALID,0,VALID,100,VALID,0.0169808,VALID,20.2055,VALID,44,VALID,0,
2009-03-25, 01:29:00,VALID,918.115,VALID,0,VALID,100,VALID,-0.0169808,VALID,20.1985,VALID,44,VALID,0,
2009-03-25, 01:30:00,VALID,918.125,VALID,0,VALID,100,VALID,0.0169808,VALID,20.225,VALID,44,VALID,0,
2009-03-25, 01:31:00,VALID,918.124,VALID,0,VALID,100,VALID,0.0169808,VALID,20.2507,VALID,44,VALID,0,
2009-03-25, 01:32:00,VALID,918.117,VALID,0,VALID,100,VALID,-0.0169808,VALID,20.2607,VALID,44,VALID,0,
2009-03-25, 01:33:00,VALID,918.104,VALID,0,VALID,100,VALID,0.0339617,VALID,20.2799,VALID,44,VALID,0,
2009-03-25, 01:34:00,VALID,918.099,VALID,0,VALID,100,VALID,0.0169808,VALID,20.2866,VALID,44,VALID,0,
2009-03-25, 01:35:00,VALID,918.088,VALID,0,VALID,100,VALID,0,VALID,20.2834,VALID,44,VALID,0,
2009-03-25, 01:36:00,VALID,918.097,VALID,0,VALID,100,VALID,0,VALID,20.2639,VALID,54,VALID,0,
2009-03-25, 01:37:00,VALID,918.095,VALID,0,VALID,100,VALID,0,VALID,20.2769,VALID,120,VALID,0,
2009-03-25, 01:38:00,VALID,918.07,VALID,0,VALID,100,VALID,0,VALID,20.3031,VALID,120,VALID,0,
2009-03-25, 01:39:00,VALID,918.064,VALID,0,VALID,100,VALID,0.0169808,VALID,20.3061,VALID,120,VALID,0,
2009-03-25, 01:40:00,VALID,918.038,VALID,0,VALID,100,VALID,0,VALID,20.2824,VALID,120,VALID,0,
2009-03-25, 01:41:00,VALID,918.027,VALID,0,VALID,100,VALID,0.0679233,VALID,20.2891,VALID,120,VALID,0,
2009-03-25, 01:42:00,VALID,918.004,VALID,0,VALID,100,VALID,0.0509425,VALID,20.2988,VALID,120,VALID,0,
2009-03-25, 01:43:00,VALID,917.99,VALID,0,VALID,100,VALID,0,VALID,20.2799,VALID,120,VALID,0,
2009-03-25, 01:44:00,VALID,917.977,VALID,0,VALID,100,VALID,0.0509425,VALID,20.2734,VALID,120,VALID,0,
2009-03-25, 01:45:00,VALID,917.961,VALID,0,VALID,100,VALID,0.0339617,VALID,20.2699,VALID,120,VALID,0,
2009-03-25, 01:46:00,VALID,917.93,VALID,0,VALID,100,VALID,0,VALID,20.2637,VALID,120,VALID,0,
2009-03-25, 01:47:00,VALID,917.915,VALID,0,VALID,100,VALID,0.0339617,VALID,20.2596,VALID,120,VALID,0,
2009-03-25, 01:48:00,VALID,917.881,VALID,0,VALID,100,VALID,0.0509425,VALID,20.2704,VALID,121,VALID,0,
2009-03-25, 01:49:00,VALID,917.858,VALID,0,VALID,100,VALID,0.0509425,VALID,20.2599,VALID,124,VALID,0,
2009-03-25, 01:50:00,VALID,917.823,VALID,0,VALID,100,VALID,0.0169808,VALID,20.2666,VALID,124,VALID,0,
2009-03-25, 01:51:00,VALID,917.818,VALID,0,VALID,100,VALID,0.0339617,VALID,20.2599,VALID,124,VALID,0,
2009-03-25, 01:52:00,VALID,917.804,VALID,0,VALID,100,VALID,0.0169808,VALID,20.2699,VALID,124,VALID,0,
2009-03-25, 01:53:00,VALID,917.796,VALID,0,VALID,100,VALID,-0.0339617,VALID,20.2644,VALID,126,VALID,0,
2009-03-25, 01:54:00,VALID,917.775,VALID,0,VALID,100,VALID,-0.118866,VALID,20.273,VALID,127,VALID,0,
2009-03-25, 01:55:00,VALID,917.754,VALID,0,VALID,100,VALID,-0.152827,VALID,20.2662,VALID,128,VALID,0,
2009-03-25, 01:56:00,VALID,917.736,VALID,0,VALID,100,VALID,-0.101885,VALID,20.2762,VALID,134,VALID,0,
2009-03-25, 01:57:00,VALID,917.73,VALID,0,VALID,100,VALID,-0.101885,VALID,20.276,VALID,150,VALID,0,
2009-03-25, 01:58:00,VALID,917.705,VALID,0,VALID,100,VALID,-0.135847,VALID,20.2927,VALID,171,VALID,0,
2009-03-25, 01:59:00,VALID,917.68,VALID,0,VALID,100,VALID,-0.118866,VALID,20.2724,VALID,171,VALID,0,
2009-03-25, 02:00:00,VALID,917.673,VALID,0,VALID,100,VALID,-0.152827,VALID,20.2897,VALID,171,VALID,0,
2009-03-25, 02:01:00,VALID,917.663,VALID,0,VALID,100,VALID,-0.118866,VALID,20.2757,VALID,171,VALID,0,
2009-03-25, 02:02:00,VALID,917.646,VALID,0,VALID,100,VALID,-0.101885,VALID,20.2892,VALID,171,VALID,0,
2009-03-25, 02:03:00,VALID,917.637,VALID,0,VALID,100,VALID,-0.152827,VALID,20.2954,VALID,171,VALID,0,
2009-03-25, 02:04:00,VALID,917.633,VALID,0,VALID,100,VALID,-0.118866,VALID,20.2984,VALID,171,VALID,0,
2009-03-25, 02:05:00,VALID,917.62,VALID,0,VALID,100,VALID,-0.118866,VALID,20.3079,VALID,170,VALID,0,
2009-03-25, 02:06:00,VALID,917.582,VALID,0,VALID,100,VALID,-0.118866,VALID,20.3246,VALID,170,VALID,0,
2009-03-25, 02:07:00,VALID,917.56,VALID,0,VALID,100,VALID,-0.101885,VALID,20.3149,VALID,166,VALID,0.0931641,
2009-03-25, 02:08:00,VALID,917.56,VALID,0,VALID,100,VALID,-0.101885,VALID,20.3109,VALID,161,VALID,0.00390625,
2009-03-25, 02:09:00,VALID,917.546,VALID,0,VALID,100,VALID,-0.118866,VALID,20.3081,VALID,169,VALID,0,
2009-03-25, 02:10:00,VALID,917.542,VALID,0,VALID,100,VALID,-0.101885,VALID,20.3117,VALID,170,VALID,0.00635901,
2009-03-25, 02:11:00,VALID,917.537,VALID,0,VALID,100,VALID,-0.135847,VALID,20.3017,VALID,170,VALID,0,
2009-03-25, 02:12:00,VALID,917.534,VALID,0,VALID,100,VALID,-0.169808,VALID,20.2989,VALID,166,VALID,0,
2009-03-25, 02:13:00,VALID,917.536,VALID,0,VALID,100,VALID,-0.101885,VALID,20.2917,VALID,163,VALID,0.0505087,
2009-03-25, 02:14:00,VALID,917.542,VALID,0,VALID,100,VALID,-0.135847,VALID,20.3084,VALID,168,VALID,0.00351562,
2009-03-25, 02:15:00,VALID,917.544,VALID,0,VALID,100,VALID,-0.118866,VALID,20.3014,VALID,167,VALID,0,
2009-03-25, 02:16:00,VALID,917.557,VALID,0,VALID,100,VALID,-0.101885,VALID,20.3081,VALID,167,VALID,0,
2009-03-25, 02:17:00,VALID,917.558,VALID,0,VALID,100,VALID,-0.101885,VALID,20.3044,VALID,167,VALID,0,
2009-03-25, 02:18:00,VALID,917.552,VALID,0,VALID,100,VALID,-0.101885,VALID,20.3179,VALID,167,VALID,0,
2009-03-25, 02:19:00,VALID,917.566,VALID,0,VALID,100,VALID,-0.118866,VALID,20.3309,VALID,167,VALID,0,
2009-03-25, 02:20:00,VALID,917.571,VALID,0,VALID,100,VALID,-0.118866,VALID,20.3403,VALID,167,VALID,0,
2009-03-25, 02:21:00,VALID,917.566,VALID,0,VALID,100,VALID,-0.118866,VALID,20.3536,VALID,167,VALID,0,
2009-03-25, 02:22:00,VALID,917.541,VALID,0,VALID,100,VALID,-0.101885,VALID,20.3698,VALID,167,VALID,0,
2009-03-25, 02:23:00,VALID,917.539,VALID,0,VALID,100,VALID,-0.0509425,VALID,20.3783,VALID,167,VALID,0,
2009-03-25, 02:24:00,VALID,917.511,VALID,0,VALID,100,VALID,-0.0169808,VALID,20.3875,VALID,167,VALID,0,
2009-03-25, 02:25:00,VALID,917.486,VALID,0,VALID,100,VALID,0,VALID,20.394,VALID,167,VALID,0,
2009-03-25, 02:26:00,VALID,917.469,VALID,0,VALID,100,VALID,0.0169808,VALID,20.407,VALID,167,VALID,0,
2009-03-25, 02:27:00,VALID,917.458,VALID,0,VALID,100,VALID,0.0169808,VALID,20.4099,VALID,167,VALID,0,
2009-03-25, 02:28:00,VALID,917.456,VALID,0,VALID,100,VALID,0,VALID,20.4202,VALID,167,VALID,0,
2009-03-25, 02:29:00,VALID,917.427,VALID,0,VALID,100,VALID,0,VALID,20.4137,VALID,167,VALID,0,
2009-03-25, 02:30:00,VALID,917.419,VALID,0,VALID,100,VALID,0,VALID,20.3975,VALID,167,VALID,0,
2009-03-25, 02:31:00,VALID,917.401,VALID,0,VALID,100,VALID,0.0169808,VALID,20.3745,VALID,167,VALID,0,
2009-03-25, 02:32:00,VALID,917.384,VALID,0,VALID,100,VALID,-0.0169808,VALID,20.3353,VALID,167,VALID,0,
2009-03-25, 02:33:00,VALID,917.376,VALID,0,VALID,100,VALID,-0.0169808,VALID,20.3093,VALID,167,VALID,0,
2009-03-25, 02:34:00,VALID,917.36,VALID,0,VALID,100,VALID,-0.0339617,VALID,20.2906,VALID,167,VALID,0,
2009-03-25, 02:35:00,VALID,917.352,VALID,0,VALID,100,VALID,-0.0169808,VALID,20.2674,VALID,167,VALID,0,
2009-03-25, 02:36:00,VALID,917.358,VALID,0,VALID,100,VALID,0,VALID,20.2574,VALID,167,VALID,0,
2009-03-25, 02:37:00,VALID,917.371,VALID,0,VALID,100,VALID,0,VALID,20.2612,VALID,167,VALID,0,
2009-03-25, 02:38:00,VALID,917.385,VALID,0,VALID,100,VALID,0.0169808,VALID,20.2482,VALID,167,VALID,0,
2009-03-25, 02:39:00,VALID,917.407,VALID,0,VALID,100,VALID,0,VALID,20.2385,VALID,167,VALID,0,
2009-03-25, 02:40:00,VALID,917.422,VALID,0,VALID,100,VALID,0,VALID,20.212,VALID,167,VALID,0,
2009-03-25, 02:41:00,VALID,917.424,VALID,0,VALID,100,VALID,0.0169808,VALID,20.1928,VALID,167,VALID,0,
2009-03-25, 02:42:00,VALID,917.415,VALID,0,VALID,100,VALID,0.0169808,VALID,20.1898,VALID,167,VALID,0,
2009-03-25, 02:43:00,VALID,917.422,VALID,0,VALID,100,VALID,0,VALID,20.1668,VALID,167,VALID,0,
2009-03-25, 02:44:00,VALID,917.414,VALID,0,VALID,100,VALID,-0.0339617,VALID,20.1473,VALID,167,VALID,0,
2009-03-25, 02:45:00,VALID,917.403,VALID,0,VALID,100,VALID,-0.0169808,VALID,20.1508,VALID,167,VALID,0,
2009-03-25, 02:46:00,VALID,917.4,VALID,0,VALID,100,VALID,-0.0339617,VALID,20.1379,VALID,167,VALID,0,
2009-03-25, 02:47:00,VALID,917.405,VALID,0,VALID,100,VALID,-0.0339617,VALID,20.1284,VALID,167,VALID,0,
2009-03-25, 02:48:00,VALID,917.392,VALID,0,VALID,100,VALID,-0.0169808,VALID,20.1181,VALID,167,VALID,0,
2009-03-25, 02:49:00,VALID,917.384,VALID,0,VALID,100,VALID,-0.0169808,VALID,20.0924,VALID,167,VALID,0,
2009-03-25, 02:50:00,VALID,917.357,VALID,0,VALID,100,VALID,0,VALID,20.0497,VALID,167,VALID,0,
2009-03-25, 02:51:00,VALID,917.329,VALID,0,VALID,100,VALID,-0.0679233,VALID,19.9851,VALID,167,VALID,0,
2009-03-25, 02:52:00,VALID,917.31,VALID,0,VALID,100,VALID,0,VALID,19.9462,VALID,167,VALID,0,
2009-03-25, 02:53:00,VALID,917.3,VALID,0,VALID,100,VALID,-0.0679233,VALID,19.9372,VALID,167,VALID,0,
2009-03-25, 02:54:00,VALID,917.29,VALID,0,VALID,100,VALID,-0.101885,VALID,19.9357,VALID,167,VALID,0,
2009-03-25, 02:55:00,VALID,917.292,VALID,0,VALID,100,VALID,-0.101885,VALID,19.922,VALID,167,VALID,0,
2009-03-25, 02:56:00,VALID,917.294,VALID,0,VALID,100,VALID,-0.118866,VALID,19.9092,VALID,167,VALID,0,
2009-03-25, 02:57:00,VALID,917.302,VALID,0,VALID,100,VALID,-0.101885,VALID,19.9122,VALID,167,VALID,0,
2009-03-25, 02:58:00,VALID,917.289,VALID,0,VALID,100,VALID,-0.152827,VALID,19.9057,VALID,161,VALID,0.0245028,
2009-03-25, 02:59:00,VALID,917.283,VALID,0,VALID,100,VALID,-0.101885,VALID,19.896,VALID,154,VALID,0.0182292,
2009-03-25, 03:00:00,VALID,917.28,VALID,0,VALID,100,VALID,-0.118866,VALID,19.87,VALID,148,VALID,0,
2009-03-25, 03:01:00,VALID,917.281,VALID,0,VALID,100,VALID,-0.118866,VALID,19.8406,VALID,142,VALID,0.00114329,
2009-03-25, 03:02:00,VALID,917.283,VALID,0,VALID,100,VALID,-0.118866,VALID,19.8216,VALID,135,VALID,0,
2009-03-25, 03:03:00,VALID,917.278,VALID,0,VALID,100,VALID,-0.135847,VALID,19.8014,VALID,143,VALID,0,
2009-03-25, 03:04:00,VALID,917.275,VALID,0,VALID,100,VALID,-0.152827,VALID,19.8016,VALID,140,VALID,0,
2009-03-25, 03:05:00,VALID,917.276,VALID,0,VALID,100,VALID,-0.101885,VALID,19.8014,VALID,137,VALID,0,
2009-03-25, 03:06:00,VALID,917.27,VALID,0,VALID,100,VALID,-0.118866,VALID,19.8021,VALID,144,VALID,0,
2009-03-25, 03:07:00,VALID,917.262,VALID,0,VALID,100,VALID,-0.101885,VALID,19.7952,VALID,146,VALID,0,
2009-03-25, 03:08:00,VALID,917.249,VALID,0,VALID,100,VALID,-0.0509425,VALID,19.8009,VALID,145,VALID,0,
2009-03-25, 03:09:00,VALID,917.252,VALID,0,VALID,100,VALID,0.0169808,VALID,19.7902,VALID,149,VALID,0.0157986,
2009-03-25, 03:10:00,VALID,917.238,VALID,0,VALID,100,VALID,-0.0169808,VALID,19.7864,VALID,137,VALID,0.0154297,
2009-03-25, 03:11:00,VALID,917.231,VALID,0,VALID,100,VALID,0.0339617,VALID,19.8001,VALID,144,VALID,0.100472,
2009-03-25, 03:12:00,VALID,917.227,VALID,0,VALID,100,VALID,0,VALID,19.7966,VALID,146,VALID,0.0611979,
2009-03-25, 03:13:00,VALID,917.212,VALID,0,VALID,100,VALID,-0.0169808,VALID,19.7966,VALID,138,VALID,0.00228659,
2009-03-25, 03:14:00,VALID,917.2,VALID,0,VALID,100,VALID,0.0169808,VALID,19.8129,VALID,142,VALID,0,
2009-03-25, 03:15:00,VALID,917.212,VALID,0,VALID,100,VALID,0,VALID,19.8358,VALID,156,VALID,0,
2009-03-25, 03:16:00,VALID,917.202,VALID,0,VALID,100,VALID,0.0169808,VALID,19.8583,VALID,127,VALID,0,
2009-03-25, 03:17:00,VALID,917.2,VALID,0,VALID,100,VALID,0,VALID,19.872,VALID,131,VALID,0,
2009-03-25, 03:18:00,VALID,917.207,VALID,0,VALID,100,VALID,0,VALID,19.8388,VALID,131,VALID,0,
2009-03-25, 03:19:00,VALID,917.193,VALID,0,VALID,100,VALID,0,VALID,19.8356,VALID,131,VALID,0,
2009-03-25, 03:20:00,VALID,917.184,VALID,0,VALID,100,VALID,0,VALID,19.8191,VALID,131,VALID,0,
2009-03-25, 03:21:00,VALID,917.176,VALID,0,VALID,100,VALID,0.0169808,VALID,19.8131,VALID,145,VALID,0.140447,
2009-03-25, 03:22:00,VALID,917.168,VALID,0,VALID,100,VALID,0,VALID,19.7966,VALID,149,VALID,0,
2009-03-25, 03:23:00,VALID,917.151,VALID,0,VALID,100,VALID,0.0169808,VALID,19.7772,VALID,150,VALID,0,
2009-03-25, 03:24:00,VALID,917.141,VALID,0,VALID,100,VALID,0,VALID,19.7607,VALID,151,VALID,0,
2009-03-25, 03:25:00,VALID,917.122,VALID,0,VALID,100,VALID,0.0509425,VALID,19.7345,VALID,150,VALID,0,
2009-03-25, 03:26:00,VALID,917.114,VALID,0,VALID,100,VALID,0,VALID,19.7185,VALID,150,VALID,0,
2009-03-25, 03:27:00,VALID,917.104,VALID,0,VALID,100,VALID,-0.0339617,VALID,19.7352,VALID,163,VALID,0,
2009-03-25, 03:28:00,VALID,917.106,VALID,0,VALID,100,VALID,0,VALID,19.7447,VALID,155,VALID,0,
2009-03-25, 03:29:00,VALID,917.103,VALID,0,VALID,100,VALID,-0.0339617,VALID,19.745,VALID,155,VALID,0,
2009-03-25, 03:30:00,VALID,917.107,VALID,0,VALID,100,VALID,-0.0169808,VALID,19.7412,VALID,155,VALID,0,
2009-03-25, 03:31:00,VALID,917.104,VALID,0,VALID,100,VALID,-0.0339617,VALID,19.7417,VALID,155,VALID,0,
2009-03-25, 03:32:00,VALID,917.112,VALID,0,VALID,100,VALID,-0.0339617,VALID,19.7155,VALID,155,VALID,0,
2009-03-25, 03:33:00,VALID,917.118,VALID,0,VALID,100,VALID,-0.0339617,VALID,19.7065,VALID,155,VALID,0.0425967,
2009-03-25, 03:34:00,VALID,917.103,VALID,0,VALID,100,VALID,0,VALID,19.6671,VALID,153,VALID,0,
2009-03-25, 03:35:00,VALID,917.089,VALID,0,VALID,100,VALID,-0.0169808,VALID,19.6312,VALID,153,VALID,0.00111607,
2009-03-25, 03:36:00,VALID,917.077,VALID,0,VALID,100,VALID,-0.0169808,VALID,19.6187,VALID,152,VALID,0,
2009-03-25, 03:37:00,VALID,917.061,VALID,0,VALID,100,VALID,0.0169808,VALID,19.6052,VALID,151,VALID,0,
2009-03-25, 03:38:00,VALID,917.051,VALID,0,VALID,100,VALID,0,VALID,19.6187,VALID,150,VALID,0,
2009-03-25, 03:39:00,VALID,917.047,VALID,0,VALID,100,VALID,-0.0679233,VALID,19.6187,VALID,146,VALID,0,
2009-03-25, 03:40:00,VALID,917.064,VALID,0,VALID,100,VALID,-0.0339617,VALID,19.6319,VALID,144,VALID,0,
2009-03-25, 03:41:00,VALID,917.055,VALID,0,VALID,100,VALID,-0.0339617,VALID,19.6287,VALID,144,VALID,0,
2009-03-25, 03:42:00,VALID,917.044,VALID,0,VALID,100,VALID,-0.0339617,VALID,19.6052,VALID,143,VALID,0.0446429,
2009-03-25, 03:43:00,VALID,917.037,VALID,0,VALID,100,VALID,-0.0509425,VALID,19.6319,VALID,143,VALID,0.0960366,
2009-03-25, 03:44:00,VALID,917.033,VALID,0,VALID,100,VALID,0,VALID,19.6249,VALID,133,VALID,0,
2009-03-25, 03:45:00,VALID,917.02,VALID,0,VALID,100,VALID,-0.0339617,VALID,19.6192,VALID,144,VALID,0.000976563,
2009-03-25, 03:46:00,VALID,917.031,VALID,0,VALID,100,VALID,-0.0339617,VALID,19.586,VALID,144,VALID,0,
2009-03-25, 03:47:00,VALID,917.042,VALID,0,VALID,100,VALID,-0.0509425,VALID,19.593,VALID,151,VALID,0,
2009-03-25, 03:48:00,VALID,917.074,VALID,0,VALID,100,VALID,0,VALID,19.5793,VALID,156,VALID,0,
2009-03-25, 03:49:00,VALID,917.1,VALID,0,VALID,100,VALID,-0.0339617,VALID,19.5925,VALID,174,VALID,0,
2009-03-25, 03:50:00,VALID,917.128,VALID,0,VALID,100,VALID,0,VALID,19.602,VALID,183,VALID,0,
2009-03-25, 03:51:00,VALID,917.149,VALID,0,VALID,100,VALID,-0.0339617,VALID,19.6149,VALID,173,VALID,0,
2009-03-25, 03:52:00,VALID,917.156,VALID,0,VALID,100,VALID,0,VALID,19.6314,VALID,179,VALID,0,